Date String (YYYY-MM-DD hh:mm:ss) UTC,Instrument flags,Ambient pressure (hPa),Sample flow (lpm),Bypass flow (lpm),Sample temperature (°C),Ambient temperature (°C),ASC tube jacket temperature (°C),LED temperature (°C),Box temperature (°C),Sample RH (%),Span deviation,Mass concentration (μg/m³),Mass concentration (μg/m³),Mass concentration (μg/m³)
DateTimeUTC,F1_M11,P_M11,Q1_M11,Q2_M11,T1_M11,T2_M11,T3_M11,T4_M11,T5_M11,U1_M11,ZSPAN_M11,X0_M11,X2_M11,X1_M11
2022-05-05 13:00:00,,0825.9,5.01,0.00,24.5,23.6,00.0,33.4,26.3,20.8,-001.0,0007.45,0004.01,0003.45
2022-05-05 13:01:00,,0825.9,4.99,0.00,24.5,23.6,00.0,33.4,26.3,20.8,0000.0,0007.53,0004.01,0003.45
2022-05-05 13:02:00,,0825.9,4.99,0.00,24.5,23.6,00.0,33.4,26.3,20.9,0000.0,0007.54,0004.01,0003.44
2022-05-05 13:03:00,,0825.9,4.99,0.00,24.5,23.6,00.0,33.5,26.3,20.8,0000.0,0007.56,0004.00,0003.43
2022-05-05 13:04:00,,0825.8,5.01,0.00,24.5,23.6,00.0,33.5,26.3,20.9,0000.0,0007.49,0003.97,0003.42
2022-05-05 13:05:00,,0825.9,5.00,0.00,24.5,23.6,00.0,33.5,26.4,20.9,0000.0,0007.40,0003.95,0003.42
2022-05-05 13:06:00,,0825.9,5.00,0.00,24.5,23.6,00.0,33.5,26.4,21.0,0000.0,0007.40,0003.94,0003.41
2022-05-05 13:07:00,,0825.9,5.01,0.00,24.5,23.6,00.0,33.4,26.4,21.2,0000.0,0007.47,0003.99,0003.43
2022-05-05 13:08:00,,0825.8,4.99,0.00,24.5,23.6,00.0,33.5,26.4,21.3,0000.4,0007.59,0004.07,0003.49
2022-05-05 13:09:00,,0825.9,5.01,0.00,24.5,23.6,00.0,33.4,26.3,21.2,0000.0,0007.57,0004.07,0003.52
2022-05-05 13:10:00,,0825.8,4.99,0.00,24.5,23.6,00.0,33.4,26.3,21.2,0000.0,0007.32,0004.09,0003.52
2022-05-05 13:11:00,,0825.9,4.99,0.00,24.5,23.6,00.0,33.4,26.3,21.2,0000.0,0007.32,0004.13,0003.53
2022-05-05 13:12:00,,0825.9,5.01,0.00,24.5,23.6,00.0,33.4,26.3,21.2,0000.0,0007.14,0004.11,0003.54
2022-05-05 13:13:00,,0825.9,4.99,0.00,24.5,23.6,00.0,33.4,26.3,21.2,0000.0,0007.58,0004.13,0003.55
2022-05-05 13:14:00,,0825.9,5.01,0.00,24.5,23.6,00.0,33.4,26.3,21.2,0000.0,0007.92,0004.13,0003.56
2022-05-05 13:15:00,,0825.9,4.99,0.00,24.5,23.6,00.0,33.4,26.3,21.2,0000.0,0007.91,0004.14,0003.56
2022-05-05 13:16:00,,0825.9,5.01,0.00,24.5,23.6,00.0,33.4,26.3,21.2,0000.0,0008.01,0004.18,0003.57
2022-05-05 13:17:00,,0825.9,5.01,0.00,24.5,23.6,00.0,33.4,26.3,21.3,0000.0,0008.13,0004.23,0003.58
2022-05-05 13:18:00,,0826.0,4.99,0.00,24.5,23.6,00.0,33.4,26.3,21.3,0000.0,0008.17,0004.22,0003.55
2022-05-05 13:19:00,,0826.0,5.01,0.00,24.5,23.5,00.0,33.4,26.3,21.4,0000.0,0008.14,0004.19,0003.52
2022-05-05 13:20:00,,0826.0,4.98,0.00,24.5,23.5,00.0,33.4,26.3,21.4,0000.0,0008.05,0004.18,0003.53
2022-05-05 13:21:00,,0826.0,5.01,0.00,24.5,23.6,00.0,33.4,26.3,21.4,0000.0,0007.91,0004.14,0003.53
2022-05-05 13:22:00,,0826.0,4.99,0.00,24.5,23.6,00.0,33.4,26.3,21.4,0000.0,0007.94,0004.14,0003.55
2022-05-05 13:23:00,,0826.0,5.01,0.00,24.5,23.6,00.0,33.4,26.3,21.4,0000.0,0008.18,0004.16,0003.53
2022-05-05 13:24:00,,0826.0,5.00,0.00,24.5,23.6,00.0,33.4,26.3,21.4,0000.0,0008.07,0004.14,0003.52
2022-05-05 13:25:00,,0826.0,4.99,0.00,24.5,23.6,00.0,33.4,26.4,21.5,0000.0,0007.54,0004.12,0003.51
2022-05-05 13:26:00,,0826.0,5.01,0.00,24.5,23.6,00.0,33.4,26.3,21.9,0000.0,0007.48,0004.11,0003.51
2022-05-05 13:27:00,,0826.0,4.99,0.00,24.5,23.6,00.0,33.4,26.3,22.3,0000.0,0007.39,0004.06,0003.50
2022-05-05 13:28:00,,0826.0,5.00,0.00,24.5,23.6,00.0,33.4,26.3,22.6,0000.0,0007.31,0004.02,0003.49
2022-05-05 13:29:00,,0826.0,5.00,0.00,24.5,23.6,00.0,33.4,26.4,23.9,0000.0,0007.31,0004.01,0003.49
2022-05-05 13:30:00,,0826.0,5.01,0.00,24.5,23.6,00.0,33.4,26.4,24.2,0000.0,0007.16,0003.97,0003.47
2022-05-05 13:31:00,,0826.0,5.00,0.00,24.5,23.7,00.0,33.4,26.4,23.5,0000.0,0007.23,0003.94,0003.43
2022-05-05 13:32:00,,0826.0,5.00,0.00,24.5,23.7,00.0,33.5,26.4,23.6,0000.0,0007.32,0003.93,0003.40
2022-05-05 13:33:00,,0826.0,5.02,0.00,24.6,23.7,00.0,33.5,26.4,23.8,0000.9,0007.18,0003.89,0003.38
2022-05-05 13:34:00,,0826.0,4.99,0.00,24.5,23.7,00.0,33.5,26.4,23.3,0002.0,0006.91,0003.89,0003.37
2022-05-05 13:35:00,,0826.1,4.99,0.00,24.6,23.7,00.0,33.5,26.4,23.2,0003.0,0006.80,0003.91,0003.38
2022-05-05 13:36:00,,0826.1,5.01,0.00,24.6,23.7,00.0,33.5,26.4,23.1,0002.0,0006.80,0003.91,0003.38
2022-05-05 13:37:00,,0826.1,5.00,0.00,24.6,23.8,00.0,33.5,26.4,23.2,0000.6,0006.95,0003.93,0003.38
2022-05-05 13:38:00,,0826.1,4.99,0.00,24.6,23.8,00.0,33.5,26.5,23.1,0001.0,0007.12,0003.96,0003.37
2022-05-05 13:39:00,,0826.1,5.01,0.00,24.6,23.8,00.0,33.5,26.5,22.8,0000.0,0006.94,0003.92,0003.35
2022-05-05 13:40:00,,0826.1,4.99,0.00,24.6,23.8,00.0,33.5,26.5,22.7,0000.0,0006.70,0003.86,0003.34
2022-05-05 13:41:00,,0826.1,5.01,0.00,24.6,23.8,00.0,33.5,26.5,22.9,0000.0,0006.51,0003.81,0003.31
2022-05-05 13:42:00,,0826.0,4.99,0.00,24.6,23.8,00.0,33.5,26.5,22.9,0000.0,0006.53,0003.80,0003.29
2022-05-05 13:43:00,,0826.0,5.00,0.00,24.6,23.8,00.0,33.5,26.5,22.7,0000.0,0006.41,0003.77,0003.28
2022-05-05 13:44:00,,0826.0,4.99,0.00,24.6,23.8,00.0,33.5,26.5,22.4,0000.0,0006.37,0003.75,0003.26
2022-05-05 13:45:00,,0826.0,5.01,0.00,24.6,23.8,00.0,33.5,26.5,22.3,0000.0,0006.14,0003.69,0003.23
2022-05-05 13:46:00,,0826.0,5.00,0.00,24.6,23.8,00.0,33.5,26.5,22.6,0000.0,0005.93,0003.63,0003.21
2022-05-05 13:47:00,,0826.0,4.99,0.00,24.7,23.8,00.0,33.5,26.5,22.7,0000.0,0005.72,0003.57,0003.17
2022-05-05 13:48:00,,0826.1,5.01,0.00,24.7,23.8,00.0,33.6,26.5,22.3,0000.0,0005.60,0003.54,0003.14
2022-05-05 13:49:00,,0826.1,4.99,0.00,24.7,23.8,00.0,33.6,26.5,22.2,0000.0,0005.36,0003.50,0003.11
2022-05-05 13:50:00,,0826.0,5.00,0.00,24.7,23.8,00.0,33.6,26.5,22.5,0000.0,0005.31,0003.48,0003.07
2022-05-05 13:51:00,,0826.0,5.01,0.00,24.7,23.9,00.0,33.6,26.5,22.7,0000.0,0005.32,0003.47,0003.03
2022-05-05 13:52:00,,0826.0,4.99,0.00,24.7,23.9,00.0,33.6,26.6,22.8,0000.0,0005.45,0003.48,0003.00
2022-05-05 13:53:00,,0826.0,4.99,0.00,24.7,23.9,00.0,33.6,26.6,22.8,0000.0,0005.34,0003.45,0002.97
2022-05-05 13:54:00,,0826.0,5.00,0.00,24.7,23.9,00.0,33.6,26.6,23.3,0000.0,0005.25,0003.43,0002.95
2022-05-05 13:55:00,,0826.0,5.01,0.00,24.7,23.9,00.0,33.6,26.6,23.5,0000.0,0005.32,0003.43,0002.93
2022-05-05 13:56:00,,0826.0,4.99,0.00,24.7,23.9,00.0,33.6,26.6,23.7,0000.0,0005.17,0003.40,0002.89
2022-05-05 13:57:00,,0826.0,5.01,0.00,24.7,23.9,00.0,33.6,26.6,23.9,0000.0,0005.26,0003.41,0002.91
2022-05-05 13:58:00,,0826.0,4.99,0.00,24.7,23.9,00.0,33.6,26.6,24.0,0000.0,0005.66,0003.50,0002.97
2022-05-05 13:59:00,,0826.0,5.01,0.00,24.7,23.8,00.0,33.6,26.6,23.3,0000.0,0006.03,0003.57,0003.10
